DW6757 Weather Reports


Display with metric or nautical units.
time (UTC)temp
F
wind
direction
speed
MPH
gust
MPH
rain 1hr
in
rain 24hr
in
rain mn
in
humidity
%
barometer
mb
20240223075503 63 347 2.0 4.0 0.00 0.00 0.00 49 1014.5
20240223075025 63 348 2.0 5.0 0.00 0.00 0.00 48 1014.5
20240223074504 63 354 2.0 5.0 0.00 0.00 0.00 47 1014.3
20240223074003 64 358 2.0 8.0 0.00 0.00 0.00 47 1014.3
20240223073503 64 5 3.0 8.0 0.00 0.00 0.00 47 1014.4
20240223073003 64 7 4.0 10.0 0.00 0.00 0.00 46 1014.2
20240223072504 64 3 3.0 10.0 0.00 0.00 0.00 46 1014.2
20240223072004 64 3 3.0 7.0 0.00 0.00 0.00 46 1014.2
20240223071504 64 4 3.0 7.0 0.00 0.00 0.00 45 1014.3
20240223071003 65 3 3.0 9.0 0.00 0.00 0.00 45 1014.2
20240223070504 65 4 3.0 9.0 0.00 0.00 0.00 44 1014.3
20240223070003 65 7 3.0 11.0 0.00 0.00 0.00 44 1014.2
20240223065504 65 8 3.0 11.0 0.00 0.00 0.00 44 1014.1
20240223065025 65 5 3.0 8.0 0.00 0.00 0.00 44 1014.1
20240223064504 65 4 3.0 9.0 0.00 0.00 0.00 43 1014.2
20240223064004 65 9 3.0 9.0 0.00 0.00 0.00 42 1014.0
20240223063504 65 12 3.0 8.0 0.00 0.00 0.00 42 1013.9
20240223063024 66 11 3.0 8.0 0.00 0.00 0.00 41 1013.9
20240223062527 66 6 3.0 8.0 0.00 0.00 0.00 41 1013.9
20240223062004 66 6 3.0 7.0 0.00 0.00 0.00 40 1013.8
20240223061525 66 7 3.0 6.0 0.00 0.00 0.00 39 1013.8
20240223061004 66 2 4.0 10.0 0.00 0.00 0.00 38 1013.7
20240223060504 66 1 4.0 12.0 0.00 0.00 0.00 38 1013.6
20240223060004 67 3 4.0 12.0 0.00 0.00 0.00 37 1013.6
20240223055504 67 360 3.0 9.0 0.00 0.00 0.00 36 1013.5
20240223055004 67 360 5.0 16.0 0.00 0.00 0.00 35 1013.5
20240223054525 67 3 6.0 16.0 0.00 0.00 0.00 35 1013.3
20240223054004 67 3 6.0 15.0 0.00 0.00 0.00 34 1013.1
20240223053504 68 360 6.0 15.0 0.00 0.00 0.00 34 1013.0
20240223053004 68 360 6.0 13.0 0.00 0.00 0.00 34 1013.0
20240223052503 68 359 6.0 13.0 0.00 0.00 0.00 34 1012.9
20240223052003 68 356 7.0 14.0 0.00 0.00 0.00 33 1012.8
20240223051503 67 355 7.0 14.0 0.00 0.00 0.00 34 1012.6
20240223051025 67 354 6.0 13.0 0.00 0.00 0.00 34 1012.6
20240223050504 67 354 6.0 13.0 0.00 0.00 0.00 35 1012.5
20240223050003 66 351 7.0 12.0 0.00 0.00 0.00 35 1012.4
20240223045504 66 351 7.0 12.0 0.00 0.00 0.00 35 1012.4
20240223045003 66 354 7.0 13.0 0.00 0.00 0.00 36 1012.4
20240223044524 66 352 7.0 13.0 0.00 0.00 0.00 36 1012.4
20240223044004 66 349 7.0 12.0 0.00 0.00 0.00 35 1012.5
20240223043504 66 351 6.0 11.0 0.00 0.00 0.00 35 1012.4
20240223043004 66 353 5.0 11.0 0.00 0.00 0.00 34 1012.2
20240223042504 66 353 5.0 11.0 0.00 0.00 0.00 35 1012.3
20240223042003 65 349 5.0 10.0 0.00 0.00 0.00 35 1012.3
20240223041525 64 345 5.0 9.0 0.00 0.00 0.00 39 1012.2
20240223041004 64 343 4.0 9.0 0.00 0.00 0.00 39 1012.3
20240223040524 64 341 3.0 5.0 0.00 0.00 0.00 40 1012.2
20240223040004 64 336 2.0 3.0 0.00 0.00 0.00 39 1012.2
20240223035503 65 333 1.0 2.0 0.00 0.00 0.00 37 1012.3
20240223035003 65 333 1.0 2.0 0.00 0.00 0.00 36 1012.3
20240223034504 66 333 1.0 2.0 0.00 0.00 0.00 37 1012.2
20240223034005 66 333 1.0 2.0 0.00 0.00 0.00 35 1012.2
20240223033505 66 333 1.0 2.0 0.00 0.00 0.00 35 1012.2
20240223033005 66 333 1.0 2.0 0.00 0.00 0.00 35 1012.1
20240223032503 66 333 1.0 2.0 0.00 0.00 0.00 35 1012.0
20240223032004 66 333 0.0 1.0 0.00 0.00 0.00 35 1012.0
20240223031503 66 333 0.0 1.0 0.00 0.00 0.00 36 1011.9
20240223031005 66 333 0.0 1.0 0.00 0.00 0.00 35 1011.9
20240223030504 66 333 0.0 1.0 0.00 0.00 0.00 34 1012.0
20240223030004 67 333 0.0 1.0 0.00 0.00 0.00 35 1012.0
20240223025503 68 333 1.0 2.0 0.00 0.00 0.00 35 1011.9
20240223025003 68 333 1.0 2.0 0.00 0.00 0.00 34 1011.9
20240223024504 68 333 1.0 2.0 0.00 0.00 0.00 35 1011.6
20240223024004 68 334 0.0 2.0 0.00 0.00 0.00 35 1011.6
20240223023503 68 336 0.0 2.0 0.00 0.00 0.00 34 1011.8
20240223023003 69 336 1.0 2.0 0.00 0.00 0.00 33 1011.6
20240223022504 70 336 1.0 2.0 0.00 0.00 0.00 32 1011.3
20240223022003 69 339 1.0 3.0 0.00 0.00 0.00 32 1011.2
20240223021503 70 337 1.0 3.0 0.00 0.00 0.00 31 1011.1
20240223021004 70 333 1.0 2.0 0.00 0.00 0.00 31 1011.0
20240223020503 71 336 1.0 2.0 0.00 0.00 0.00 31 1010.8
20240223020003 71 340 1.0 3.0 0.00 0.00 0.00 30 1010.8
20240223015503 71 343 2.0 4.0 0.00 0.00 0.00 30 1010.7
20240223015005 72 339 2.0 4.0 0.00 0.00 0.00 29 1010.6
20240223014503 72 332 1.0 2.0 0.00 0.00 0.00 29 1010.4
20240223014005 72 338 1.0 2.0 0.00 0.00 0.00 29 1010.4
20240223013504 72 334 1.0 2.0 0.00 0.00 0.00 29 1010.4
20240223013003 73 326 1.0 2.0 0.00 0.00 0.00 28 1010.2
20240223012524 74 327 1.0 2.0 0.00 0.00 0.00 27 1010.1
20240223012024 74 329 1.0 2.0 0.00 0.00 0.00 27 1010.1
20240223011505 74 328 1.0 2.0 0.00 0.00 0.00 27 1010.0
20240223011007 74 328 1.0 2.0 0.00 0.00 0.00 27 1009.8
20240223010526 75 328 1.0 1.0 0.00 0.00 0.00 26 1009.7
20240223010006 75 328 0.0 1.0 0.00 0.00 0.00 27 1009.7
20240223005526 76 328 0.0 1.0 0.00 0.00 0.00 26 1009.6
20240223005006 76 328 0.0 1.0 0.00 0.00 0.00 25 1009.5
20240223004526 77 323 1.0 2.0 0.00 0.00 0.00 24 1009.5
20240223004005 78 313 1.0 2.0 0.00 0.00 0.00 24 1009.4
20240223003505 78 298 1.0 2.0 0.00 0.00 0.00 24 1009.3
20240223003028 79 290 1.0 2.0 0.00 0.00 0.00 24 1009.2
20240223002505 80 291 1.0 2.0 0.00 0.00 0.00 24 1009.1
20240223002005 80 295 1.0 3.0 0.00 0.00 0.00 23 1009.1
20240223001505 81 298 2.0 3.0 0.00 0.00 0.00 23 1009.1
20240223001026 82 296 2.0 3.0 0.00 0.00 0.00 21 1009.1
20240223000505 83 296 2.0 4.0 0.00 0.00 0.00 21 1009.1
20240223000005 83 302 2.0 4.0 0.00 0.00 0.00 22 1009.0
20240222235526 84 313 1.0 3.0 0.00 0.00 0.00 21 1008.9
20240222235005 84 306 2.0 4.0 0.00 0.00 0.00 22 1008.8
20240222234505 85 295 2.0 6.0 0.00 0.00 0.00 22 1008.7
20240222234005 85 295 3.0 7.0 0.00 0.00 0.00 20 1008.7
20240222233526 86 298 3.0 8.0 0.00 0.00 0.00 19 1008.7
20240222233006 86 303 3.0 8.0 0.00 0.00 0.00 18 1008.6
20240222232505 86 297 3.0 9.0 0.00 0.00 0.00 20 1008.6
20240222232006 86 290 4.0 9.0 0.00 0.00 0.00 21 1008.4
20240222231507 86 292 3.0 8.0 0.00 0.00 0.00 20 1008.4
20240222231005 87 303 2.0 8.0 0.00 0.00 0.00 20 1008.4
20240222230506 87 313 3.0 7.0 0.00 0.00 0.00 23 1008.3
20240222230026 87 299 4.0 12.0 0.00 0.00 0.00 22 1008.2
20240222225505 87 294 4.0 12.0 0.00 0.00 0.00 19 1008.3
20240222225005 87 296 4.0 9.0 0.00 0.00 0.00 23 1008.3
20240222224505 87 299 3.0 9.0 0.00 0.00 0.00 22 1008.4
20240222224006 86 292 2.0 6.0 0.00 0.00 0.00 28 1008.3
20240222223505 84 175 1.0 4.0 0.00 0.00 0.00 38 1008.4
20240222223006 84 177 2.0 4.0 0.00 0.00 0.00 55 1008.2
20240222222505 84 202 2.0 5.0 0.00 0.00 0.00 53 1008.2
20240222222026 84 206 2.0 5.0 0.00 0.00 0.00 54 1008.3
20240222221506 84 206 2.0 6.0 0.00 0.00 0.00 55 1008.2
20240222221005 84 210 2.0 6.0 0.00 0.00 0.00 55 1008.2
20240222220505 83 198 2.0 4.0 0.00 0.00 0.00 56 1008.2
20240222220005 83 192 2.0 5.0 0.00 0.00 0.00 54 1008.3
20240222215510 83 197 3.0 6.0 0.00 0.00 0.00 57 1008.2
20240222215005 83 207 3.0 8.0 0.00 0.00 0.00 55 1008.2
20240222214505 83 214 4.0 9.0 0.00 0.00 0.00 56 1008.2
20240222214005 83 212 5.0 10.0 0.00 0.00 0.00 56 1008.4
20240222213505 82 208 6.0 11.0 0.00 0.00 0.00 57 1008.4
20240222213026 82 208 5.0 11.0 0.00 0.00 0.00 56 1008.3
20240222212505 82 205 5.0 8.0 0.00 0.00 0.00 53 1008.4
20240222212027 82 193 5.0 9.0 0.00 0.00 0.00 56 1008.4
20240222211527 82 185 4.0 9.0 0.00 0.00 0.00 57 1008.4
20240222211005 82 182 3.0 7.0 0.00 0.00 0.00 56 1008.4
20240222210505 82 178 3.0 8.0 0.00 0.00 0.00 54 1008.6
20240222210005 81 186 5.0 9.0 0.00 0.00 0.00 58 1008.6
20240222205506 82 183 4.0 9.0 0.00 0.00 0.00 56 1008.6
20240222205005 82 184 3.0 8.0 0.00 0.00 0.00 56 1008.7
20240222204505 82 198 4.0 8.0 0.00 0.00 0.00 54 1008.7
20240222204004 82 200 3.0 6.0 0.00 0.00 0.00 53 1008.7
20240222203505 82 179 2.0 5.0 0.00 0.00 0.00 56 1008.7
20240222203007 81 188 3.0 7.0 0.00 0.00 0.00 53 1008.9
20240222202505 82 222 3.0 7.0 0.00 0.00 0.00 55 1009.0
20240222202005 82 227 3.0 8.0 0.00 0.00 0.00 53 1009.0
20240222201506 81 225 4.0 8.0 0.00 0.00 0.00 55 1009.1
20240222201005 81 241 3.0 7.0 0.00 0.00 0.00 57 1009.3
20240222200526 80 258 4.0 10.0 0.00 0.00 0.00 55 1009.3
20240222200005 80 253 5.0 10.0 0.00 0.00 0.00 53 1009.4
20240222195526 81 250 3.0 7.0 0.00 0.00 0.00 60 1009.5
20240222195027 80 249 4.0 9.0 0.00 0.00 0.00 57 1009.7
20240222194505 80 229 5.0 9.0 0.00 0.00 0.00 57 1009.8
20240222194005 79 236 4.0 11.0 0.00 0.00 0.00 59 1009.8
20240222193506 78 246 4.0 11.0 0.00 0.00 0.00 61 1009.9
20240222193006 78 217 4.0 7.0 0.00 0.00 0.00 61 1010.0
20240222192505 78 228 5.0 8.0 0.00 0.00 0.00 67 1010.1
20240222192006 77 229 5.0 9.0 0.00 0.00 0.00 63 1010.1
20240222191506 77 215 5.0 10.0 0.00 0.00 0.00 69 1010.2
20240222191026 77 234 4.0 10.0 0.00 0.00 0.00 70 1010.4
20240222190505 76 243 4.0 10.0 0.00 0.00 0.00 69 1010.7
20240222190026 76 225 5.0 9.0 0.00 0.00 0.00 66 1010.9
20240222185505 75 211 6.0 9.0 0.00 0.00 0.00 71 1011.1
20240222185006 75 219 4.0 9.0 0.00 0.00 0.00 75 1011.2
20240222184504 75 226 5.0 9.0 0.00 0.00 0.00 73 1011.3
20240222184006 74 218 6.0 10.0 0.00 0.00 0.00 72 1011.4
20240222183505 74 224 5.0 10.0 0.00 0.00 0.00 74 1011.4
20240222183005 74 225 5.0 11.0 0.00 0.00 0.00 74 1011.5
20240222182505 74 221 5.0 11.0 0.00 0.00 0.00 75 1011.7
20240222182005 73 223 5.0 10.0 0.00 0.00 0.00 77 1011.8
20240222181506 73 212 5.0 9.0 0.00 0.00 0.00 75 1011.9
20240222181005 72 229 5.0 9.0 0.00 0.00 0.00 77 1012.1
20240222180505 73 243 4.0 9.0 0.00 0.00 0.00 75 1012.2
20240222180026 73 235 5.0 9.0 0.00 0.00 0.00 77 1012.2
20240222175506 72 252 5.0 8.0 0.00 0.00 0.00 77 1012.3
20240222175005 72 258 5.0 8.0 0.00 0.00 0.00 78 1012.5
20240222174526 72 263 4.0 8.0 0.00 0.00 0.00 76 1012.5
20240222174006 72 253 4.0 7.0 0.00 0.00 0.00 77 1012.7
20240222173505 72 244 3.0 7.0 0.00 0.00 0.00 78 1012.5
20240222173005 72 248 3.0 6.0 0.00 0.00 0.00 79 1012.7
20240222172505 71 238 3.0 6.0 0.00 0.00 0.00 79 1012.7
20240222172005 71 246 3.0 7.0 0.00 0.00 0.00 79 1012.7
20240222171504 71 248 4.0 9.0 0.00 0.00 0.00 78 1012.7
20240222171006 71 236 4.0 9.0 0.00 0.00 0.00 80 1013.0
20240222170507 70 229 4.0 9.0 0.00 0.00 0.00 81 1013.0
20240222170026 70 235 4.0 9.0 0.00 0.00 0.00 82 1013.0
20240222165526 70 244 4.0 8.0 0.00 0.00 0.00 82 1012.9
20240222165005 69 230 3.0 8.0 0.00 0.00 0.00 82 1012.9
20240222164505 69 231 3.0 7.0 0.00 0.00 0.00 84 1012.9
20240222164005 69 233 3.0 8.0 0.00 0.00 0.00 84 1012.8
20240222163505 69 224 4.0 8.0 0.00 0.00 0.00 84 1012.7
20240222163005 68 221 4.0 8.0 0.00 0.00 0.00 84 1012.7
20240222162504 68 220 4.0 10.0 0.00 0.00 0.00 85 1012.8
20240222162005 68 219 4.0 10.0 0.00 0.00 0.00 84 1012.8
20240222161505 68 212 4.0 9.0 0.00 0.00 0.00 85 1013.0
20240222161005 68 207 5.0 9.0 0.00 0.00 0.00 85 1013.0
20240222160526 68 213 4.0 7.0 0.00 0.00 0.00 86 1012.9
20240222160027 67 213 4.0 7.0 0.00 0.00 0.00 87 1012.9
20240222155526 67 202 4.0 8.0 0.00 0.00 0.00 86 1013.0
20240222155006 67 197 4.0 7.0 0.00 0.00 0.00 86 1012.9
20240222154505 67 207 3.0 7.0 0.00 0.00 0.00 87 1013.0
20240222154005 67 212 3.0 7.0 0.00 0.00 0.00 88 1013.1
20240222153505 66 206 2.0 4.0 0.00 0.00 0.00 88 1013.1
20240222153026 66 178 2.0 4.0 0.00 0.00 0.00 88 1013.2
20240222152505 66 182 2.0 4.0 0.00 0.00 0.00 88 1012.7
20240222152005 66 192 2.0 4.0 0.00 0.00 0.00 88 1012.8
20240222151505 66 191 1.0 3.0 0.00 0.00 0.00 89 1012.9
20240222151005 66 173 1.0 3.0 0.00 0.00 0.00 89 1013.2
20240222150505 65 134 1.0 2.0 0.00 0.00 0.00 89 1013.0
20240222150006 65 142 1.0 2.0 0.00 0.00 0.00 89 1012.8
20240222145505 65 153 1.0 2.0 0.00 0.00 0.00 90 1012.9
20240222145005 65 155 1.0 2.0 0.00 0.00 0.00 90 1012.9
20240222144505 65 155 1.0 2.0 0.00 0.00 0.00 90 1012.8
20240222144005 64 155 0.0 2.0 0.00 0.00 0.00 90 1012.8
20240222143506 64 155 0.0 2.0 0.00 0.00 0.00 90 1012.8
20240222143005 64 141 1.0 2.0 0.00 0.00 0.00 91 1012.8
20240222142507 64 107 0.0 2.0 0.00 0.00 0.00 91 1012.3
20240222142005 64 84 0.0 1.0 0.00 0.00 0.00 91 1012.4
20240222141505 64 84 0.0 2.0 0.00 0.00 0.00 91 1012.4
20240222141026 64 84 1.0 2.0 0.00 0.00 0.00 91 1012.3
20240222140505 64 84 0.0 2.0 0.00 0.00 0.00 91 1012.3
20240222140026 64 84 1.0 2.0 0.00 0.00 0.00 91 1012.3
20240222135506 64 84 1.0 2.0 0.00 0.00 0.00 91 1012.6
20240222135007 64 83 1.0 3.0 0.00 0.00 0.00 90 1012.1
20240222134506 64 88 1.0 3.0 0.00 0.00 0.00 91 1012.1
20240222134005 64 98 1.0 3.0 0.00 0.00 0.00 91 1012.1
20240222133504 64 108 1.0 2.0 0.00 0.00 0.00 91 1012.2
20240222133005 64 108 0.0 2.0 0.00 0.00 0.00 91 1012.3
20240222132505 64 108 0.0 2.0 0.00 0.00 0.00 91 1012.5
20240222132005 64 108 1.0 2.0 0.00 0.00 0.00 91 1012.4
20240222131505 64 108 0.0 2.0 0.00 0.00 0.00 91 1012.3
20240222131005 64 108 0.0 2.0 0.00 0.00 0.00 91 1012.4
20240222130505 64 108 0.0 2.0 0.00 0.00 0.00 91 1012.4
20240222130005 64 108 1.0 2.0 0.00 0.00 0.00 90 1012.2
20240222125505 64 108 1.0 2.0 0.00 0.00 0.00 90 1012.1
20240222125005 64 108 0.0 2.0 0.00 0.00 0.00 90 1012.3
20240222124505 64 109 0.0 2.0 0.00 0.00 0.00 90 1012.4
20240222124004 64 89 1.0 2.0 0.00 0.00 0.00 90 1012.2
20240222123527 64 59 1.0 2.0 0.00 0.00 0.00 90 1012.2
20240222123005 64 27 1.0 2.0 0.00 0.00 0.00 90 1012.5
20240222122504 64 11 0.0 1.0 0.00 0.00 0.00 90 1012.8
20240222122004 64 352 1.0 3.0 0.00 0.00 0.00 90 1012.9
20240222121505 64 24 1.0 3.0 0.00 0.00 0.00 90 1013.1
20240222121005 64 104 1.0 2.0 0.00 0.00 0.00 89 1012.6
20240222120504 64 101 1.0 2.0 0.00 0.00 0.00 89 1012.3
20240222120005 64 70 1.0 2.0 0.00 0.00 0.00 89 1012.6
20240222115504 64 36 1.0 2.0 0.00 0.00 0.00 89 1012.5
20240222115004 64 5 0.0 1.0 0.00 0.00 0.00 88 1012.9
20240222114505 64 5 0.0 1.0 0.00 0.00 0.00 88 1013.1
20240222114025 65 358 1.0 2.0 0.00 0.00 0.00 88 1013.2
20240222113526 65 3 1.0 2.0 0.00 0.00 0.00 88 1013.4
20240222113004 65 145 0.0 2.0 0.00 0.00 0.00 88 1013.0
20240222112504 65 146 1.0 2.0 0.00 0.00 0.00 88 1013.2
20240222112026 65 146 0.0 2.0 0.00 0.00 0.00 88 1013.1
20240222111505 65 146 0.0 2.0 0.00 0.00 0.00 88 1013.0
20240222111005 65 165 1.0 3.0 0.00 0.00 0.00 88 1013.1
20240222110506 65 210 1.0 3.0 0.00 0.00 0.00 87 1012.5
20240222110004 65 266 1.0 3.0 0.00 0.00 0.00 87 1012.7
20240222105505 65 225 2.0 4.0 0.00 0.00 0.00 87 1013.1
20240222105006 65 222 2.0 4.0 0.00 0.00 0.00 87 1012.7
20240222104505 65 286 2.0 4.0 0.00 0.00 0.00 87 1012.9
20240222104004 65 249 3.0 9.0 0.00 0.00 0.00 87 1013.2
20240222103504 65 209 5.0 9.0 0.00 0.00 0.00 87 1012.6
20240222103005 65 199 7.0 11.0 0.00 0.00 0.00 87 1012.1
20240222102505 65 195 7.0 11.0 0.00 0.00 0.00 87 1011.8
20240222102005 65 194 7.0 13.0 0.00 0.00 0.00 87 1011.8
20240222101505 65 192 7.0 13.0 0.00 0.00 0.00 87 1011.9
20240222101026 65 192 7.0 11.0 0.00 0.00 0.00 87 1011.8
20240222100504 65 191 8.0 14.0 0.00 0.00 0.00 86 1011.7
20240222100005 65 190 8.0 14.0 0.00 0.00 0.00 86 1011.6
20240222095505 65 193 8.0 13.0 0.00 0.00 0.00 86 1011.7
20240222095005 65 194 7.0 13.0 0.00 0.00 0.00 86 1011.6
20240222094504 65 191 8.0 13.0 0.00 0.00 0.00 86 1011.5
20240222094005 65 188 8.0 14.0 0.00 0.00 0.00 86 1011.5
20240222093504 66 189 8.0 14.0 0.00 0.00 0.00 85 1011.7
20240222093006 66 189 9.0 17.0 0.00 0.00 0.00 85 1011.8
20240222092504 66 188 10.0 17.0 0.00 0.00 0.00 85 1011.8
20240222092005 66 189 10.0 17.0 0.00 0.00 0.00 85 1011.9
20240222091504 66 187 9.0 17.0 0.00 0.00 0.00 85 1011.9
20240222091005 66 184 9.0 17.0 0.00 0.00 0.00 85 1011.8
20240222090505 66 186 9.0 17.0 0.00 0.00 0.00 84 1011.9
20240222090004 66 189 10.0 17.0 0.00 0.00 0.00 84 1012.0
20240222085505 66 189 9.0 16.0 0.00 0.00 0.00 84 1012.2
20240222085005 66 185 9.0 17.0 0.00 0.00 0.00 84 1012.1
20240222084505 66 184 9.0 17.0 0.00 0.00 0.00 84 1012.3
20240222084026 66 187 10.0 19.0 0.00 0.00 0.00 84 1012.3
20240222083504 66 187 10.0 19.0 0.00 0.00 0.00 84 1012.2
20240222083005 66 185 10.0 17.0 0.00 0.00 0.00 84 1012.3
20240222082505 66 184 10.0 18.0 0.00 0.00 0.00 84 1012.3
20240222082005 66 182 9.0 18.0 0.00 0.00 0.00 84 1012.6
20240222081505 66 181 9.0 18.0 0.00 0.00 0.00 84 1012.5
20240222081005 66 183 10.0 18.0 0.00 0.00 0.00 84 1012.7
20240222080526 66 185 9.0 15.0 0.00 0.00 0.00 84 1012.6
20240222080005 66 186 9.0 15.0 0.00 0.00 0.00 84 1012.8